Location: Adrasan
(36.3319°N, 30.4314°E)
Time: 16:06:54
(UTC+00:00)

ISS - Visible Passes

Search period start: 19 April 2024 00:00
Search period end: 29 April 2024 00:00
Orbit: 412 x 418 km, 51.6° (Epoch: 19 April)

Date Brightness Start Highest point End Pass type
(mag) Time Alt. Az. Time Alt. Az. Time Alt. Az.
19 Apr -3.4 02:46:08 10° SW 02:49:25 64° SE 02:52:43 10° NE visible
20 Apr -2.4 01:58:57 19° S 02:00:43 32° SE 02:03:43 10° ENE visible
21 Apr -1.4 01:12:17 17° ESE 01:12:17 17° ESE 01:14:18 10° E visible
21 Apr -3.0 02:45:21 10° WSW 02:48:30 39° NW 02:51:40 10° NE visible
22 Apr -3.8 01:58:21 35° WSW 01:59:35 74° NW 02:02:54 10° NE visible
23 Apr -2.7 01:11:25 43° E 01:11:25 43° E 01:13:56 10° ENE visible
23 Apr -1.7 02:45:16 10° WNW 02:47:36 18° NNW 02:49:57 10° NNE visible
24 Apr -0.5 00:24:21 12° ENE 00:24:21 12° ENE 00:24:42 10° ENE visible
24 Apr -2.3 01:57:13 21° WNW 01:58:27 26° NNW 02:01:20 10° NNE visible
25 Apr -2.6 01:10:02 38° N 01:10:02 38° N 01:12:33 10° NE visible
26 Apr -0.7 00:22:46 16° NE 00:22:46 16° NE 00:23:33 10° NE visible
26 Apr -1.2 01:55:37 10° NW 01:57:21 13° NNW 01:59:06 10° N visible
27 Apr -1.6 01:08:14 19° NNW 01:08:14 19° NNW 01:10:30 10° NNE visible
28 Apr -0.8 00:20:47 16° NNE 00:20:47 16° NNE 00:21:39 10° NNE visible
